Location: Habighorst
(52.7089°N, 10.2278°E)
Time: 00:28:19
(UTC+00:00)

Lacrosse 4 Rocket - Pass Details

Date: 13 January 2026
Orbit: 512 x 564 km, 68.0° (Epoch: 18 February)

Event Time Altitude Azimuth Distance (km) Brightness Sun altitude
Rises 05:40:26 0° 176° (S) 2,655 5.1 -15.1°
Reaches altitude 10° 05:43:01 10° 159° (SSE) 1,762 4.4 -14.7°
Maximum altitude 05:45:55 20° 112° (ESE) 1,247 4.2 -14.3°
Drops below altitude 10° 05:48:48 10° 64° (ENE) 1,755 4.6 -13.8°
Sets 05:51:23 0° 47° (NE) 2,642 5.2 -13.5°
